[[{"header":{"parameterUnit":"m.s-1","parameterCategory":1,"la1":30.2991,"la2":30.254,"lo1":-89.0895,"lo2":-89.0444,"dy":0.0017,"dx":0.0017,"nx":28,"ny":28,"refTime":"2023-11-04T03:00:00:Z","depth":0,"parameterNumber":2,"parameterNumberName":"U-component_of_WINDS"},"data":[0,0,0,0,0,0,0,0,0,0,0,0,0,0,0,0,0,0,0,0,0,0,0,0,0,0,0,0,0,0,0,0,0,0,0,0,0,0,0,0,0,0,0,0,0,0,0,0,0,0,0,0,0,0,0,0,0,0,-1.2185,-1.2185,0,-1.2217,-1.2218,-1.2218,-1.2187,-1.2185,-1.2184,-1.2183,-1.2216,-1.2218,-1.222,0,0,0,0,0,0,0,0,0,0,0,0,0,-1.2095,-1.2097,-1.2185,-1.2185,-1.2186,-1.2217,-1.2218,-1.2218,-1.2187,-1.2185,-1.2184,-1.2183,-1.2215,-1.2218,-1.222,0,0,0,0,0,0,0,0,0,0,0,0,0,-1.2132,-1.2098,-1.2185,-1.2174,-1.2173,-1.2217,-1.2218,-1.2218,-1.2187,-1.2185,-1.2184,-1.2182,-1.2214,-1.2217,-1.222,-1.2276,0,0,-1.223,-1.2231,0,0,0,0,0,0,0,0,-1.213,-1.2135,-1.2175,-1.2175,-1.2174,-1.2196,-1.2198,-1.2238,-1.2188,-1.2182,-1.2183,-1.2181,-1.2211,-1.2214,-1.2224,-1.2278,-1.2279,-1.223,-1.2232,-1.2233,-1.2234,0,0,0,0,0,0,0,-1.2127,-1.2133,-1.2198,-1.2176,-1.2175,-1.2167,-1.217,-1.2205,-1.2206,-1.2182,-1.218,-1.2184,-1.221,-1.2221,-1.2225,-1.228,-1.223,-1.2233,-1.2234,-1.2236,-1.2382,-1.2384,0,0,0,0,0,0,-1.2126,-1.2132,-1.2197,-1.2199,-1.2147,-1.217,-1.2174,-1.2191,-1.2206,-1.2206,-1.2186,-1.2183,-1.2217,-1.2221,-1.2226,-1.2293,-1.2233,-1.2236,-1.2238,-1.238,-1.2383,-1.2385,0,0,0,0,0,0,-1.2124,-1.2132,-1.2195,-1.2165,-1.2172,-1.2174,-1.2193,-1.2192,-1.2204,-1.2209,-1.2209,-1.2197,-1.2216,-1.2221,-1.2264,-1.2294,-1.2237,-1.224,-1.2378,-1.2381,-1.2384,-1.2428,0,0,0,0,0,0,-1.2122,-1.2132,-1.2153,-1.2165,-1.2174,-1.2234,-1.2195,-1.2194,-1.2209,-1.2205,-1.2219,-1.222,-1.2215,-1.226,-1.2267,-1.2297,-1.2242,-1.2375,-1.2379,-1.2383,-1.2424,-1.2433,-1.244,0,0,0,0,0,-1.2119,-1.2164,-1.2154,-1.2162,-1.2201,-1.2235,-1.224,-1.2234,-1.2212,-1.2233,-1.2236,-1.2219,-1.2289,-1.2265,-1.2273,-1.2304,-1.2373,-1.2378,-1.2382,-1.2421,-1.2431,-1.244,0,0,0,0,0,0,-1.2155,-1.2165,-1.2155,-1.2205,-1.222,-1.223,-1.2257,-1.2244,-1.2265,-1.2261,-1.2251,-1.2255,-1.23,-1.2306,-1.2278,-1.2359,-1.2328,-1.2334,-1.2354,-1.2364,-1.2371,-1.237,-1.2245,0,0,0,0,0,-1.2169,-1.2196,-1.2204,-1.2248,-1.2256,-1.2255,-1.227,-1.2264,-1.2278,-1.2284,-1.229,-1.2305,-1.233,-1.2347,-1.237,-1.2424,-1.2428,-1.245,-1.2458,-1.2464,-1.247,-1.25,-1.251,-1.24,-1.24,-1.24,0,0,-1.2198,-1.2207,-1.2225,-1.2255,-1.2266,-1.2295,-1.226,-1.2292,-1.2314,-1.2289,-1.233,-1.2335,-1.2351,-1.24,-1.2422,-1.2406,-1.2501,-1.247,-1.2475,-1.2478,-1.2506,-1.2516,-1.2526,-1.2403,-1.2403,-1.2402,0,0,-1.2266,-1.2275,-1.2313,-1.2324,-1.2341,-1.234,-1.2349,-1.2362,-1.2364,-1.2406,-1.2388,-1.2413,-1.2456,-1.2468,-1.248,-1.2553,-1.2539,-1.2561,-1.2602,-1.2631,-1.264,-1.2648,-1.2675,-1.2684,-1.2567,-1.2567,-1.2567,0,-1.23,-1.2343,-1.2334,-1.2368,-1.2382,-1.2361,-1.24,-1.2411,-1.2434,-1.2444,-1.2426,-1.2481,-1.249,-1.2542,-1.256,-1.257,-1.258,-1.256,-1.2639,-1.2647,-1.2654,-1.268,-1.269,-1.2569,-1.2569,-1.2569,-1.2569,0,-1.2384,-1.2414,-1.2443,-1.2467,-1.2484,-1.252,-1.2517,-1.2536,-1.2528,-1.2529,-1.2572,-1.2581,-1.2607,-1.2618,-1.2611,-1.267,-1.266,-1.2641,-1.2609,-1.2667,-1.2692,-1.2701,-1.2573,-1.2572,-1.2572,-1.2571,0,0,-1.2477,-1.2495,-1.2506,-1.2517,-1.2533,-1.2557,-1.2591,-1.2617,-1.2633,-1.265,-1.2679,-1.2717,-1.2699,-1.2713,-1.2706,-1.2732,-1.279,-1.271,-1.271,-1.2725,-1.2857,-1.2872,-1.2884,-1.278,-1.2782,-1.2783,-1.2856,0,-1.2546,-1.2608,-1.2601,-1.266,-1.2688,-1.2668,-1.2699,-1.2712,-1.2714,-1.2738,-1.274,-1.2768,-1.2742,-1.275,-1.2775,-1.2778,-1.2817,-1.2772,-1.2808,-1.281,-1.2806,-1.2896,-1.2912,-1.2981,-1.2865,-1.2867,-1.2868,0,-1.2636,-1.2656,-1.2718,-1.2731,-1.2742,-1.277,-1.2793,-1.2816,-1.2831,-1.2831,-1.2846,-1.2835,-1.287,-1.2837,-1.2886,-1.2856,-1.287,-1.2874,-1.2876,-1.288,-1.2843,-1.2904,-1.3002,-1.3013,-1.2883,-1.2882,-1.288,0,-1.2698,-1.2741,-1.2784,-1.2793,-1.2809,-1.2829,-1.2837,-1.285,-1.2866,-1.2885,-1.2896,-1.2919,-1.2933,-1.2951,-1.2947,-1.2923,-1.2997,-1.2963,-1.2998,-1.2999,-1.3016,-1.3015,-1.3119,-1.3023,-1.3023,-1.3023,-1.3022,0,-1.2778,-1.2816,-1.2812,-1.2839,-1.2882,-1.2874,-1.2916,-1.2921,-1.2933,-1.296,-1.2944,-1.2969,-1.2961,-1.2987,-1.2983,-1.3025,-1.3031,-1.3032,-1.3031,-1.3034,-1.3034,-1.3044,-1.304,-1.3025,-1.3025,-1.3024,-1.3024,0,-1.2856,-1.2854,-1.29,-1.2911,-1.2915,-1.2946,-1.2956,-1.2981,-1.2981,-1.3016,-1.3024,-1.3025,-1.3054,-1.3051,-1.3083,-1.3081,-1.3133,-1.3125,-1.3128,-1.3127,-1.3163,-1.316,-1.3278,-1.3294,-1.3186,-1.3187,-1.3188,0,-1.2907,-1.2936,-1.2951,-1.2968,-1.2977,-1.3005,-1.3021,-1.3014,-1.3032,-1.3051,-1.3074,-1.3102,-1.3124,-1.3171,-1.3174,-1.3199,-1.3193,-1.3232,-1.3197,-1.3199,-1.3195,-1.3194,-1.3197,-1.324,-1.3241,-1.3242,-1.3243,0,-1.2998,-1.2997,-1.3021,-1.3045,-1.3065,-1.3084,-1.3101,-1.3116,-1.3111,-1.3131,-1.3161,-1.3178,-1.3211,-1.3239,-1.3262,-1.327,-1.3256,-1.3254,-1.3264,-1.3268,-1.3269,-1.3271,-1.3149,-1.3252,-1.3251,-1.325,-1.325,-1.3249,-1.3066,-1.3091,-1.3106,-1.3134,-1.3146,-1.3162,-1.3187,-1.3191,-1.3215,-1.3242,-1.3236,-1.327,-1.3284,-1.3315,-1.3324,-1.3351,-1.3336,-1.335,-1.3354,-1.3358,-1.3363,-1.3264,-1.3355,-1.3354,-1.3354,-1.3354,-1.3354,0,-1.3157,-1.3166,-1.3192,-1.3216,-1.3238,-1.3223,-1.3241,-1.3261,-1.3291,-1.3305,-1.3327,-1.3362,-1.3389,-1.3394,-1.342,-1.344,-1.3435,-1.3447,-1.3446,-1.3449,-1.3373,-1.3363,-1.3452,-1.3452,-1.3452,-1.3451,-1.3451,-1.3451,-1.3208,-1.3251,-1.3251,-1.33,-1.3308,-1.3341,-1.3353,-1.3368,-1.338,-1.342,-1.3442,-1.3446,-1.3457,-1.3483,-1.3508,-1.3508,-1.3519,-1.3535,-1.3534,-1.3463,-1.3454,-1.3445,-1.3435,-1.3537,-1.3537,-1.3607,-1.3608,-1.3608]},{"header":{"parameterUnit":"m.s-1","parameterCategory":1,"la1":30.2991,"la2":30.254,"lo1":-89.0895,"lo2":-89.0444,"dy":0.0017,"dx":0.0017,"nx":28,"ny":28,"refTime":"2023-11-04T03:00:00:Z","depth":0,"parameterNumber":3,"parameterNumberName":"V-component_of_WINDS"},"data":[0,0,0,0,0,0,0,0,0,0,0,0,0,0,0,0,0,0,0,0,0,0,0,0,0,0,0,0,0,0,0,0,0,0,0,0,0,0,0,0,0,0,0,0,0,0,0,0,0,0,0,0,0,0,0,0,0,0,-2.1221,-2.1221,0,-2.1263,-2.1264,-2.1264,-2.1233,-2.1231,-2.123,-2.1229,-2.1269,-2.1272,-2.1274,0,0,0,0,0,0,0,0,0,0,0,0,0,-2.1109,-2.1111,-2.1221,-2.1221,-2.1222,-2.1263,-2.1264,-2.1264,-2.1233,-2.1231,-2.123,-2.1228,-2.1269,-2.1272,-2.1274,0,0,0,0,0,0,0,0,0,0,0,0,0,-2.1155,-2.1112,-2.1221,-2.1211,-2.1211,-2.1263,-2.1264,-2.1265,-2.1233,-2.1231,-2.1229,-2.1227,-2.1268,-2.1271,-2.1275,-2.1338,0,0,-2.1286,-2.1287,0,0,0,0,0,0,0,0,-2.1153,-2.1159,-2.1212,-2.1212,-2.1211,-2.1241,-2.1239,-2.1289,-2.1234,-2.1225,-2.1229,-2.1226,-2.1261,-2.1265,-2.1278,-2.134,-2.1342,-2.1286,-2.1288,-2.129,-2.1291,0,0,0,0,0,0,0,-2.115,-2.1157,-2.1237,-2.1213,-2.1212,-2.1204,-2.1208,-2.1249,-2.1254,-2.1225,-2.1223,-2.1229,-2.1261,-2.1274,-2.1278,-2.1342,-2.1286,-2.1289,-2.1291,-2.1293,-2.1459,-2.1461,0,0,0,0,0,0,-2.1148,-2.1155,-2.1236,-2.1239,-2.1176,-2.1207,-2.1212,-2.1233,-2.1253,-2.1255,-2.123,-2.1227,-2.1269,-2.1274,-2.128,-2.1356,-2.129,-2.1293,-2.1295,-2.1457,-2.146,-2.1462,0,0,0,0,0,0,-2.1145,-2.1155,-2.1234,-2.1196,-2.1206,-2.1212,-2.1235,-2.1235,-2.1249,-2.1257,-2.1258,-2.1244,-2.1268,-2.1275,-2.1324,-2.1357,-2.1295,-2.1298,-2.1454,-2.1458,-2.1461,-2.1509,0,0,0,0,0,0,-2.1142,-2.1155,-2.1179,-2.1197,-2.1208,-2.1279,-2.1237,-2.1238,-2.1255,-2.1251,-2.127,-2.1271,-2.1267,-2.1319,-2.1328,-2.1361,-2.1301,-2.1451,-2.1456,-2.146,-2.1504,-2.1513,-2.1521,0,0,0,0,0,-2.1138,-2.119,-2.1181,-2.1191,-2.1239,-2.1281,-2.1287,-2.1282,-2.1258,-2.1283,-2.1288,-2.127,-2.1352,-2.1324,-2.1334,-2.1368,-2.1449,-2.1454,-2.1459,-2.15,-2.1512,-2.1521,0,0,0,0,0,0,-2.1175,-2.1192,-2.1182,-2.1241,-2.126,-2.1276,-2.1306,-2.1294,-2.1319,-2.1314,-2.1306,-2.131,-2.1362,-2.137,-2.1339,-2.1431,-2.1396,-2.1404,-2.1424,-2.1435,-2.1443,-2.1441,-2.1303,0,0,0,0,0,-2.119,-2.1224,-2.1237,-2.1288,-2.1298,-2.1301,-2.1318,-2.1313,-2.1332,-2.1339,-2.1348,-2.1366,-2.1396,-2.1416,-2.1443,-2.1505,-2.1508,-2.1533,-2.1542,-2.1548,-2.1555,-2.1589,-2.16,-2.1479,-2.1479,-2.1479,0,0,-2.1222,-2.1235,-2.1257,-2.1295,-2.1309,-2.1344,-2.1307,-2.1345,-2.137,-2.1344,-2.1393,-2.14,-2.1419,-2.1475,-2.15,-2.1483,-2.1589,-2.1555,-2.156,-2.1564,-2.1595,-2.1607,-2.1617,-2.1482,-2.1482,-2.1481,0,0,-2.1297,-2.131,-2.1355,-2.137,-2.1391,-2.1393,-2.1404,-2.1421,-2.1426,-2.1474,-2.1455,-2.1484,-2.1536,-2.1551,-2.1565,-2.1646,-2.163,-2.1655,-2.1699,-2.1732,-2.1742,-2.175,-2.178,-2.1791,-2.1661,-2.1661,-2.1661,0,-2.1333,-2.1385,-2.1379,-2.1419,-2.1436,-2.1415,-2.146,-2.1474,-2.1504,-2.1516,-2.1497,-2.1561,-2.1573,-2.1632,-2.1652,-2.1664,-2.1676,-2.1653,-2.1741,-2.175,-2.1757,-2.1786,-2.1797,-2.1664,-2.1664,-2.1664,-2.1663,0,-2.1428,-2.1465,-2.1498,-2.1528,-2.1549,-2.1591,-2.1591,-2.1613,-2.1606,-2.1609,-2.1658,-2.1671,-2.1702,-2.1715,-2.1708,-2.1774,-2.1763,-2.1742,-2.1708,-2.1772,-2.1799,-2.1809,-2.1668,-2.1667,-2.1667,-2.1666,0,0,-2.1528,-2.1556,-2.1568,-2.1582,-2.1604,-2.1632,-2.1672,-2.1703,-2.1723,-2.1743,-2.1777,-2.1821,-2.1803,-2.1819,-2.1813,-2.1842,-2.1906,-2.1818,-2.1818,-2.1835,-2.1981,-2.1997,-2.201,-2.1896,-2.1898,-2.1899,-2.1979,0,-2.1606,-2.1678,-2.1674,-2.1742,-2.1775,-2.1756,-2.1792,-2.1809,-2.1813,-2.1841,-2.1845,-2.1877,-2.185,-2.186,-2.1887,-2.1893,-2.1936,-2.1886,-2.1927,-2.1929,-2.1925,-2.2023,-2.2041,-2.2116,-2.199,-2.1991,-2.1993,0,-2.1706,-2.1731,-2.1803,-2.1821,-2.1835,-2.1867,-2.1896,-2.1923,-2.1942,-2.1943,-2.1961,-2.1951,-2.1991,-2.1955,-2.2011,-2.1977,-2.1993,-2.1999,-2.2001,-2.2006,-2.1966,-2.2032,-2.2139,-2.2151,-2.2009,-2.2007,-2.2006,0,-2.1773,-2.1825,-2.1875,-2.1887,-2.191,-2.1933,-2.1943,-2.196,-2.1979,-2.2003,-2.2015,-2.2043,-2.2059,-2.208,-2.2077,-2.2051,-2.2134,-2.2097,-2.2136,-2.2137,-2.2156,-2.2155,-2.2269,-2.2164,-2.2164,-2.2164,-2.2164,0,-2.186,-2.1905,-2.1906,-2.1937,-2.1986,-2.1981,-2.2029,-2.2037,-2.2052,-2.2083,-2.2067,-2.2097,-2.2091,-2.212,-2.2117,-2.2165,-2.2171,-2.2173,-2.2172,-2.2175,-2.2175,-2.2187,-2.2182,-2.2167,-2.2166,-2.2166,-2.2165,0,-2.1945,-2.1947,-2.2,-2.2017,-2.2022,-2.2058,-2.2072,-2.2101,-2.2104,-2.2144,-2.2153,-2.2157,-2.2191,-2.219,-2.2227,-2.2225,-2.2284,-2.2276,-2.2278,-2.2277,-2.2316,-2.2313,-2.2443,-2.246,-2.2343,-2.2344,-2.2345,0,-2.2001,-2.2035,-2.2056,-2.2077,-2.2089,-2.2122,-2.2142,-2.2137,-2.2158,-2.2182,-2.2208,-2.2241,-2.2267,-2.2321,-2.2327,-2.2356,-2.2349,-2.2393,-2.2354,-2.2356,-2.2351,-2.235,-2.2354,-2.2401,-2.2402,-2.2403,-2.2404,0,-2.2101,-2.2101,-2.213,-2.2161,-2.2185,-2.2208,-2.2229,-2.2247,-2.2244,-2.2269,-2.2304,-2.2324,-2.2363,-2.2395,-2.2423,-2.2432,-2.2418,-2.2416,-2.2427,-2.2431,-2.2432,-2.2433,-2.23,-2.2414,-2.2413,-2.2412,-2.2411,-2.2411,-2.2174,-2.2204,-2.2224,-2.2258,-2.2273,-2.2294,-2.2322,-2.2329,-2.2358,-2.2391,-2.2386,-2.2425,-2.2443,-2.2479,-2.2491,-2.2521,-2.2505,-2.2521,-2.2525,-2.2529,-2.2534,-2.2426,-2.2526,-2.2525,-2.2525,-2.2525,-2.2525,0,-2.2275,-2.2287,-2.2318,-2.2349,-2.2375,-2.236,-2.2383,-2.2406,-2.2441,-2.2459,-2.2485,-2.2526,-2.2557,-2.2565,-2.2596,-2.2618,-2.2612,-2.2626,-2.2625,-2.2628,-2.2546,-2.2534,-2.2631,-2.2631,-2.263,-2.263,-2.263,-2.263,-2.233,-2.2381,-2.2383,-2.244,-2.2451,-2.2491,-2.2505,-2.2524,-2.2539,-2.2585,-2.2612,-2.2617,-2.2632,-2.2663,-2.2691,-2.2692,-2.2705,-2.2721,-2.2721,-2.2644,-2.2633,-2.2623,-2.2612,-2.2724,-2.2724,-2.28,-2.2801,-2.2802]}]]